SL-8 R/B - Orbit

View from above orbital plane
View from above orbital plane
View from above satellite
View from above satellite

Ground track
Ground track

The orbit data is extracted from the following two-line orbital elements,

1 32284U 07053B   13137.67773538  .00026348  00000-0  43597-3 0  6895
2 32284 098.1277 173.2283 0011854 323.6670 184.0783 15.52113201310193
Epoch (UTC): 17 May 2013 16:15:56
Eccentricity: 0.0011854
inclination: 98.1277°
perigee height: 402 km
apogee height: 418 km
right ascension of ascending node: 173.2283°
argument of perigee: 323.6670°
revolutions per day: 15.52113201
mean anomaly at epoch: 184.0783°
orbit number at epoch: 31019

The dashed part of the orbit path shows where the satellite is in the earth's shadow,  

Developed and maintained by Chris Peat, Heavens-Above GmbH. Please read the updated FAQ before sending e-mail. Imprint. DLR